STARLINK-3908 (52491 NORAD) Tracking and Keplerian Element Data
This shows tracking and keplerian element data for the satellite.
Feedback or suggestion? Click here.
Element | Value |
Catalog | 52491 |
Name | STARLINK-3908 |
Epoch Orbit | 130 |
Epoch Day | 167.08334491 |
Epoch Year | 2022 |
RAAN | 64.9745 |
Inclination | 53.2169 |
Eccentricity | 0.0001932 |
Argument of Perigee | 26.0253 |
Mean Anonmoly | 125.4508 |
Mean Motion | 15.7318414 |
Decay Rate | 0.0006385 |
L1 | 1 52491U 22049AS 22167.08334491 .00063850 00000+0 45619-3 0 9997 |
L2 | 2 52491 53.2169 64.9745 0001932 26.0253 125.4508 15.73184140 1300 |
Live tracking and technical data element details for STARLINK-3908 (NORAD 52491). STARLINK-3908 can be tracked NOW for your location showing map with azimuth and elevation plus other details from your city location.
Track the satellite on the map from your city or location and see movement details for azimuth, elevation, latitude, longitude, range, height, and movement on the map or in text.
IsCatalogInMostPopularTable: catalog: 52491, numindb: 1
Update: records affected: 1
GetName: 52491 STARLINK-3908
Hit Count: updated at: Sat, 25 Jun 2022 05:08:34 GMT